NOAA 15 (25338 NORAD) Tracking and Keplerian Element Data

This shows tracking and keplerian element data for the satellite.

Feedback or suggestion? Click here.




ElementValue
Catalog25338
NameNOAA 15
Epoch Orbit33518
Epoch Day13.10493208
Epoch Year2024
RAAN43.3683
Inclination98.5862
Eccentricity0.0011259
Argument of Perigee63.8264
Mean Anonmoly296.4073
Mean Motion14.2647045
Decay Rate2.83E-06
L11 25338U 98030A 24013.10493208 .00000283 00000+0 13560-3 0 9998
L22 25338 98.5862 43.3683 0011259 63.8264 296.4073 14.26470450335189



Live tracking and technical data element details for NOAA 15 (NORAD 25338). NOAA 15 can be tracked NOW for your location showing map with azimuth and elevation plus other details from your city location.







IsCatalogInMostPopularTable: catalog: 25338, numindb: 1047
Update: records affected: 1



GetName: 25338 NOAA 15

Hit Count: updated at: Fri, 19 Apr 2024 11:46:36 GMT